Location: Gleizolles
(44.4833°N, 6.7667°E)
Time: 00:49:20
(UTC+00:00)

Vanguard 2 Rocket - Pass Details

Date: 24 June 2024
Orbit: 555 x 3302 km, 32.9° (Epoch: 24 July)

Event Time Altitude Azimuth Distance (km) Brightness Sun altitude
Rises 00:28:09 0° 219° (SW) 6,418 - -21.0°
Reaches altitude 10° 00:32:27 10° 213° (SSW) 5,691 - -20.9°
Exits shadow 00:38:53 26° 197° (SSW) 4,803 9.9 -20.6°
Maximum altitude 00:48:56 41° 151° (SSE) 4,231 9.9 -20.1°
Drops below altitude 10° 01:05:54 10° 91° (E) 5,885 11.3 -19.0°
Sets 01:10:23 0° 85° (E) 6,652 11.7 -18.7°
